This is the latest recevied weather packets stored in our database for station/object NT9M-13. If no packets are shown the sender has not sent any weather packets the latest 10 day(s).
| Time | Temp. | Humidity | Pressure | Rain* | Wind** | Luminosity | Snow |
|---|---|---|---|---|---|---|---|
| 1778185178 | 17.22° C | 45% | 1012.7 hPa | 0 mm | - | - | - |
| 1778183377 | 16.67° C | 46% | 1013.1 hPa | 0 mm | - | - | - |
| 1778176777 | 17.22° C | 49% | 1014.1 hPa | 0 mm | - | - | - |
| 1778173177 | 17.22° C | 47% | 1014.9 hPa | 0 mm | - | - | - |
| 1778171377 | 16.67° C | 50% | 1015.2 hPa | 0 mm | - | - | - |
| 1778167778 | 14.44° C | 56% | 1015.2 hPa | 0 mm | - | - | - |
| 1778164178 | 11.67° C | 59% | 1015.1 hPa | 0 mm | - | - | - |
| 1778159978 | 9.44° C | 70% | 1015.1 hPa | 0 mm | - | - | - |
| 1778157578 | 7.78° C | 76% | 1014.9 hPa | 0 mm | - | - | - |
| 1778155179 | 6.11° C | 82% | 1015 hPa | 0 mm | - | - | - |
| 1778153978 | 5.56° C | 83% | 1014.9 hPa | 0 mm | - | - | - |
| 1778150979 | 5.56° C | 82% | 1014.3 hPa | 0 mm | - | - | - |
| 1778148579 | 6.11° C | 81% | 1014.3 hPa | 0 mm | - | - | - |
| 1778147978 | 6.11° C | 80% | 1014.3 hPa | 0 mm | - | - | - |
| 1778141978 | 6.67° C | 76% | 1014.4 hPa | 0 mm | - | - | - |
| 1778132979 | 8.33° C | 71% | 1014.6 hPa | 0 mm | - | - | - |
| 1778128779 | 10° C | 69% | 1014.3 hPa | 0 mm | - | - | - |
| 1778121579 | 11.11° C | 68% | 1014 hPa | 0 mm | - | - | - |
| 1778120979 | 11.11° C | 67% | 1014.1 hPa | 0 mm | - | - | - |
| 1778120379 | 11.11° C | 66% | 1014 hPa | 0 mm | - | - | - |
| 1778117979 | 11.67° C | 64% | 1013.8 hPa | 0 mm | - | - | - |
| 1778116780 | 12.22° C | 62% | 1013.7 hPa | 0 mm | - | - | - |
| 1778116179 | 12.22° C | 61% | 1013.7 hPa | 0 mm | - | - | - |
| 1778113780 | 12.22° C | 58% | 1013.5 hPa | 0 mm | - | - | - |
| 1778112579 | 12.78° C | 56% | 1013.5 hPa | 0 mm | - | - | - |
* Rain latest hour (hover to see other rain measurements)
** Current wind speed in m/s (hover to see current wind gust speed)